Temp
8 8 7 7 7 7 7 7 6 6 6 6 6 6 5 5 5 5 5 5 5 5 5 5 5 5 5 5 5 5 5 5 5 6 6 6 6 6 6 5 5 5 5 5 6 7 7 7 8 8 9 8 7 8 8 7 7 7 6 6 6 6 6 6 5 5 5 4 4 4 3 3 2 2 2 2 2 1 1 1 1 1 1 0 0
8 8 7 7 7 7 6 6 6 6 6 6 6 6 5 5 5 5 5 4 4 4 4 4 4 4 4 4 5 5 5 5 5 4 5 5 5 5 5 5 5 4 5 5 5 5 6 6 7 7 8 8 7 7 7 7 7 7 6 6 6 6 6 6 5 5 5 5 5 4 3 3 2 2 2 2 2 2 1 1 1 1 0 0 0
7 7 7 7 6 6 6 6 6 6 6 6 6 6 5 5 5 5 5 4 4 4 4 4 3 3 3 4 4 4 4 5 5 4 4 4 4 4 4 4 4 4 4 4 4 4 5 5 6 6 7 7 7 7 7 7 7 6 6 6 6 5 6 6 5 5 6 6 5 5 4 4 3 2 2 2 2 1 1 1 1 1 0 0 0
7 7 8 9 7 6 6 6 6 6 6 6 6 6 5 5 5 5 5 4 4 4 4 3 3 3 3 3 3 4 4 4 5 5 4 4 4 4 3 3 3 3 3 4 4 4 4 4 5 5 6 7 7 7 7 7 7 6 6 6 6 6 6 5 5 5 6 6 6 6 6 5 5 4 3 2 2 1 1 1 0 0 0 -0 -0
7 7 8 9 7 7 6 6 6 6 6 6 5 5 5 5 5 5 5 5 4 4 4 4 4 3 3 3 2 3 3 4 4 5 5 5 4 4 4 3 3 3 3 3 3 3 3 4 4 4 5 6 6 6 6 6 6 6 6 6 6 6 6 5 4 4 5 6 6 6 6 6 6 6 4 3 2 1 0 0 -0 -0 -0 -0 -1
7 7 7 7 6 6 6 6 6 5 5 5 5 5 5 5 5 5 5 5 4 4 4 4 4 4 3 3 2 2 2 3 3 4 4 4 4 4 4 4 3 3 3 2 2 2 2 2 3 3 3 4 5 5 5 6 6 6 6 6 6 6 6 5 4 4 4 6 7 7 7 6 7 7 4 3 1 0 0 -0 -1 -1 -1 -1 -1
7 7 6 6 6 6 6 6 5 5 5 5 5 5 5 5 5 5 5 4 4 4 4 4 4 4 3 3 3 2 2 2 2 3 3 3 3 3 4 4 4 4 3 3 2 2 1 1 1 2 2 3 4 4 5 5 5 5 5 5 6 6 6 6 5 4 4 5 5 6 7 7 7 7 6 4 1 -0 0 -0 -1 -1 -1 -1 -1
6 6 6 6 6 6 5 5 5 5 5 5 5 5 5 5 5 5 4 4 4 4 4 3 3 3 3 3 3 2 2 2 2 2 2 2 2 2 3 3 3 3 3 3 3 2 2 1 1 1 1 2 2 3 3 4 4 5 5 5 5 5 6 6 5 4 4 4 5 5 6 6 6 6 6 6 4 1 0 -1 -1 -1 -1 -1 -1
6 5 6 6 6 5 5 5 5 5 4 4 4 4 4 4 4 4 4 4 3 3 3 3 3 3 3 3 3 3 2 2 2 2 1 1 1 1 2 2 2 2 2 3 3 3 2 2 1 1 1 1 1 2 2 3 3 4 4 5 5 5 5 6 6 5 4 4 4 4 5 5 4 4 5 5 5 4 2 -0 -1 -1 -1 -1 -1
6 5 6 6 5 5 5 5 5 5 4 4 4 4 4 4 3 3 3 3 3 3 3 3 3 3 3 3 3 3 3 2 2 2 2 1 1 1 1 1 1 1 1 1 2 2 2 2 2 2 1 1 1 1 1 2 2 3 4 4 4 5 5 5 6 5 4 4 4 4 4 4 3 3 3 3 4 5 4 1 0 -1 -1 -1 -1
5 5 5 5 5 5 5 5 5 5 4 4 4 4 3 3 3 3 3 3 3 3 3 2 2 2 2 2 2 2 2 2 2 2 2 1 1 1 1 1 1 1 1 1 1 1 1 1 2 2 2 2 2 2 1 1 2 2 3 4 4 4 5 5 5 5 4 4 4 3 3 4 3 3 3 3 3 4 4 3 2 0 0 0 -1
5 5 5 5 5 5 5 4 4 4 4 4 3 3 3 2 2 3 3 3 3 2 2 2 2 2 2 2 2 2 2 2 2 2 2 2 2 1 1 1 1 0 0 0 0 0 -0 0 0 1 1 1 2 2 2 2 2 2 2 3 4 4 4 4 5 5 5 4 4 3 3 3 3 3 3 3 3 4 4 4 3 1 1 1 -1
5 5 5 5 5 5 5 4 4 3 3 3 3 3 2 2 2 2 2 2 2 2 2 2 2 2 2 2 2 2 2 2 2 2 2 1 1 1 1 1 1 1 1 0 0 -0 -0 -0 -1 -1 -0 1 1 1 2 2 2 2 2 2 3 3 4 4 4 4 5 5 4 3 3 3 3 3 3 3 3 3 3 3 2 1 1 0 -2
4 4 4 5 5 5 4 3 3 3 3 3 3 2 2 1 2 2 2 2 1 1 1 1 1 1 1 1 1 1 1 1 2 1 1 1 1 1 1 1 1 1 1 1 1 0 0 -0 -0 -1 -1 -0 0 0 1 1 2 2 2 2 2 3 3 3 3 4 4 4 4 3 3 3 3 3 3 3 2 3 3 3 2 0 1 -0 -2
4 4 4 4 4 4 3 3 3 3 3 2 2 2 1 1 2 2 2 1 1 1 1 1 1 1 1 1 1 1 1 1 1 1 1 1 1 1 1 1 1 1 1 1 1 1 0 -0 -0 -1 -1 -1 -1 -1 -0 -0 0 1 1 1 2 2 2 2 3 3 3 4 4 3 3 3 3 2 2 2 2 2 2 2 2 0 -0 -1 -2
4 4 3 3 3 3 3 3 2 2 2 2 2 1 0 1 1 1 1 1 0 0 1 0 0 0 0 0 1 0 0 0 0 0 0 0 1 1 1 1 1 1 1 1 1 1 1 0 -0 -1 -1 -1 -1 -1 -1 -1 -1 -1 -0 0 0 1 1 2 2 2 2 3 3 3 3 3 2 2 2 2 1 2 2 2 2 1 -0 -1 -2
4 3 3 3 3 3 3 2 2 2 1 1 0 -0 -0 1 1 1 0 0 -0 0 0 -0 -0 0 -0 -0 -0 -0 0 0 0 0 0 0 0 1 1 1 1 1 1 1 1 1 1 0 0 -0 -1 -1 -1 -1 -1 -1 -1 -2 -1 -1 -1 -0 0 0 1 1 1 2 2 2 2 2 2 1 1 1 1 1 1 1 2 1 1 0 -1
3 3 3 3 3 3 2 2 2 1 -0 -1 -0 -0 0 1 1 -0 -1 -1 -0 -0 -0 -0 -0 -0 -0 -0 -1 -1 -0 0 0 0 0 0 0 1 1 1 1 1 1 1 1 1 1 1 0 0 -0 -1 -1 -2 -2 -1 -2 -2 -2 -1 -1 -1 -1 -0 -0 0 1 1 1 1 1 1 1 1 0 1 1 0 0 1 1 1 1 1 1
3 3 2 2 3 2 2 2 1 0 -1 -0 0 0 0 1 0 -1 -1 -1 -0 -0 -0 -0 -0 -0 -1 -1 -1 -1 -1 -1 -0 0 0 -0 0 1 1 1 1 1 1 1 1 1 1 1 1 0 0 -0 -1 -1 -2 -2 -2 -2 -2 -2 -2 -1 -1 -1 -0 -0 -0 -0 0 0 1 0 0 0 -0 -0 -0 -0 -0 -0 -0 0 1 1 1
3 2 2 2 2 2 2 1 0 -1 -1 -0 -0 -0 -0 -0 -0 -1 -2 -1 -1 -1 -1 -1 -0 -0 -1 -1 -1 -1 -1 -2 -1 -1 -0 -0 0 1 1 1 1 1 1 1 1 1 0 0 0 0 0 0 -0 -1 -1 -2 -2 -2 -2 -2 -2 -2 -1 -1 -1 -1 -1 -0 -0 -0 -0 -0 -0 -1 -1 -1 -1 -1 -1 -1 -1 -1 -0 0 1
2 2 2 2 2 1 1 0 -1 -1 -0 -0 -1 -1 -1 -1 -1 -2 -2 -2 -2 -1 -1 -1 -0 -0 -1 -1 -1 -1 -2 -2 -2 -1 -1 -0 0 0 0 0 1 0 0 1 0 0 0 0 0 0 0 0 -0 -0 -1 -1 -2 -2 -2 -2 -2 -2 -2 -2 -1 -1 -1 -1 -1 -1 -1 -1 -1 -1 -2 -2 -2 -2 -2 -2 -2 -2 -2 -1 -1
2 2 2 2 1 1 -0 -1 -1 -0 -0 -1 -1 -1 -1 -2 -2 -2 -2 -2 -2 -1 -1 -1 -1 -1 -1 -1 -2 -2 -2 -2 -2 -1 -1 -0 -0 -0 -0 -0 -0 -0 -0 0 0 0 0 0 0 0 0 0 0 -0 -0 -1 -2 -2 -2 -2 -2 -2 -2 -2 -2 -2 -1 -1 -2 -1 -1 -1 -1 -2 -2 -2 -2 -3 -3 -3 -3 -3 -3 -2 -2
2 2 1 1 1 -0 -1 -1 -0 -0 -1 -1 -1 -2 -2 -2 -2 -2 -2 -2 -2 -2 -2 -3 -2 -2 -2 -3 -3 -2 -2 -2 -2 -2 -1 -1 -1 -0 -0 -1 -1 -1 -1 -0 -0 0 0 0 -0 -0 -0 -0 -0 -0 -0 -1 -2 -2 -2 -2 -2 -2 -3 -2 -2 -2 -2 -2 -2 -2 -2 -2 -2 -2 -3 -3 -3 -3 -3 -3 -4 -4 -4 -4 -3
2 1 1 1 0 -0 -0 -0 -1 -1 -1 -1 -2 -2 -3 -3 -3 -3 -3 -4 -4 -4 -4 -4 -3 -3 -3 -3 -3 -3 -3 -3 -2 -2 -1 -1 -1 -1 -0 -0 -0 -0 -0 -1 -1 -1 -0 -0 -0 -0 -0 -0 -0 -0 -1 -1 -2 -2 -2 -2 -2 -2 -3 -3 -3 -2 -2 -2 -3 -3 -3 -3 -3 -3 -3 -4 -4 -4 -4 -4 -4 -4 -4 -4 -4
1 1 1 0 -0 -0 -0 -1 -1 -1 -2 -2 -3 -3 -3 -4 -4 -4 -5 -5 -4 -4 -4 -4 -4 -4 -4 -3 -3 -3 -3 -3 -2 -2 -1 -1 -1 -1 -1 -1 -0 -0 -0 -0 -0 -1 -1 -1 -1 -0 -0 -0 -0 -0 -0 -1 -1 -2 -2 -2 -2 -2 -3 -3 -3 -3 -3 -3 -3 -3 -3 -3 -4 -4 -4 -4 -4 -4 -5 -5 -5 -5 -5 -5 -5
1 1 0 -0 -1 -1 -1 -1 -1 -2 -2 -3 -3 -4 -4 -4 -5 -5 -5 -5 -5 -5 -5 -5 -5 -4 -4 -4 -3 -3 -3 -2 -2 -2 -2 -2 -2 -1 -1 -1 -1 -0 0 0 -0 -0 -1 -1 -1 -0 -0 -0 -0 -0 -0 -1 -1 -2 -2 -3 -3 -3 -3 -3 -3 -4 -3 -3 -3 -4 -4 -4 -4 -4 -4 -4 -5 -5 -5 -5 -5 -5 -5 -5 -5
0 -0 -0 -1 -1 -1 -1 -2 -2 -2 -2 -3 -4 -4 -4 -5 -5 -5 -5 -6 -6 -6 -6 -6 -6 -5 -5 -5 -4 -3 -3 -3 -2 -2 -2 -2 -2 -2 -2 -1 -1 -0 -0 -0 -0 -1 -1 -1 -1 -1 -1 -1 -1 -1 -1 -1 -2 -2 -2 -3 -3 -3 -3 -3 -4 -4 -4 -4 -4 -4 -4 -4 -5 -5 -5 -5 -5 -5 -5 -5 -5 -5 -6 -6 -6
-0 -1 -1 -1 -1 -2 -2 -2 -2 -2 -3 -4 -4 -5 -5 -5 -6 -6 -6 -6 -6 -7 -7 -7 -7 -6 -6 -5 -5 -4 -4 -4 -4 -3 -3 -3 -3 -2 -2 -1 -1 -1 -1 -0 -1 -1 -1 -1 -1 -1 -1 -1 -1 -1 -1 -1 -2 -2 -2 -3 -3 -3 -4 -4 -4 -4 -4 -4 -4 -4 -5 -5 -5 -5 -5 -5 -5 -5 -6 -6 -6 -6 -6 -6 -7
-1 -1 -1 -1 -2 -2 -2 -2 -2 -3 -4 -5 -5 -5 -5 -6 -6 -6 -6 -6 -7 -7 -7 -7 -7 -7 -6 -6 -6 -5 -5 -5 -5 -4 -4 -4 -3 -3 -2 -2 -1 -1 -1 -1 -1 -1 -1 -1 -1 -1 -1 -1 -1 -1 -1 -2 -2 -2 -2 -3 -3 -3 -4 -4 -4 -4 -5 -5 -5 -5 -5 -5 -5 -5 -5 -5 -5 -5 -6 -6 -6 -6 -6 -7 -7
-1 -1 -2 -2 -2 -3 -3 -2 -3 -4 -5 -5 -6 -6 -6 -6 -7 -7 -7 -8 -8 -8 -8 -8 -7 -7 -6 -6 -6 -6 -6 -6 -6 -5 -5 -4 -4 -4 -3 -2 -2 -2 -2 -2 -2 -1 -2 -2 -2 -2 -2 -2 -2 -2 -2 -2 -2 -2 -2 -3 -3 -3 -4 -4 -4 -5 -5 -5 -5 -5 -5 -5 -6 -6 -6 -6 -6 -6 -6 -6 -6 -6 -7 -7 -7
-2 -2 -2 -2 -3 -3 -3 -3 -4 -5 -6 -6 -6 -7 -7 -7 -7 -7 -8 -8 -8 -8 -8 -8 -8 -7 -7 -7 -6 -6 -6 -6 -6 -6 -5 -5 -5 -4 -4 -3 -3 -3 -3 -2 -2 -2 -2 -2 -2 -2 -2 -2 -2 -2 -2 -2 -2 -2 -2 -3 -3 -4 -4 -4 -5 -5 -5 -5 -5 -5 -5 -6 -6 -6 -6 -6 -6 -6 -6 -6 -6 -6 -6 -7 -7
-2 -3 -3 -3 -3 -3 -4 -5 -6 -6 -7 -7 -7 -7 -7 -8 -8 -8 -9 -9 -9 -9 -8 -8 -8 -7 -7 -7 -7 -6 -6 -6 -6 -6 -6 -6 -5 -5 -4 -4 -4 -4 -3 -2 -2 -2 -2 -2 -2 -2 -2 -2 -2 -2 -2 -2 -2 -2 -2 -3 -3 -3 -4 -4 -4 -5 -5 -5 -5 -6 -6 -6 -6 -6 -6 -6 -7 -7 -7 -7 -7 -7 -7 -6 -6
-3 -3 -3 -4 -4 -4 -5 -6 -7 -7 -8 -8 -8 -8 -8 -8 -9 -10 -9 -9 -9 -9 -9 -9 -8 -8 -8 -7 -7 -7 -7 -7 -7 -7 -6 -6 -6 -5 -5 -5 -5 -4 -3 -3 -2 -2 -2 -2 -2 -2 -2 -2 -2 -2 -2 -2 -2 -2 -2 -2 -3 -3 -4 -4 -4 -5 -5 -5 -5 -6 -6 -6 -6 -7 -7 -7 -7 -7 -7 -7 -7 -7 -7 -7 -7
-4 -4 -4 -4 -4 -5 -7 -7 -8 -8 -8 -8 -8 -9 -9 -10 -10 -11 -10 -10 -10 -10 -10 -9 -9 -9 -8 -8 -8 -8 -8 -8 -8 -8 -7 -7 -6 -6 -6 -5 -5 -4 -3 -3 -2 -2 -2 -2 -2 -2 -2 -2 -2 -2 -2 -2 -2 -2 -2 -2 -3 -3 -3 -4 -4 -5 -5 -5 -6 -6 -6 -7 -7 -7 -7 -7 -7 -7 -7 -7 -7 -7 -7 -7 -7
-4 -4 -4 -5 -6 -7 -8 -8 -9 -9 -9 -9 -9 -10 -10 -11 -11 -11 -11 -10 -10 -11 -10 -10 -9 -9 -9 -9 -8 -8 -8 -8 -8 -8 -8 -7 -6 -6 -6 -5 -4 -4 -3 -2 -2 -2 -2 -2 -2 -2 -2 -2 -2 -2 -2 -2 -2 -2 -2 -3 -3 -3 -3 -4 -4 -5 -5 -5 -6 -6 -6 -7 -7 -7 -7 -7 -7 -7 -7 -7 -7 -8 -8 -8 -7
-5 -5 -5 -6 -8 -9 -9 -9 -9 -9 -10 -10 -10 -11 -11 -12 -12 -12 -11 -11 -11 -11 -11 -10 -10 -10 -10 -10 -9 -9 -9 -9 -9 -9 -9 -8 -7 -6 -5 -5 -4 -3 -2 -2 -2 -2 -2 -2 -2 -2 -2 -2 -2 -2 -2 -2 -2 -2 -2 -3 -3 -3 -3 -4 -4 -5 -5 -6 -6 -6 -6 -7 -7 -7 -7 -7 -7 -7 -7 -7 -8 -8 -8 -8 -8
-5 -5 -6 -8 -9 -9 -10 -10 -10 -10 -11 -11 -11 -11 -12 -12 -13 -13 -12 -12 -12 -12 -11 -11 -11 -11 -11 -11 -10 -10 -10 -10 -10 -10 -9 -9 -7 -6 -5 -5 -4 -3 -2 -2 -2 -2 -2 -2 -2 -2 -2 -2 -2 -2 -2 -2 -2 -2 -3 -3 -3 -4 -4 -4 -5 -5 -6 -6 -6 -6 -7 -7 -7 -7 -7 -7 -7 -7 -8 -8 -8 -8 -8 -8 -8
-5 -6 -8 -9 -10 -10 -10 -10 -11 -11 -12 -12 -12 -12 -13 -13 -13 -13 -13 -13 -12 -12 -11 -11 -11 -12 -12 -11 -11 -11 -11 -11 -11 -11 -10 -9 -8 -6 -5 -5 -4 -3 -2 -2 -2 -2 -2 -2 -2 -2 -2 -2 -2 -2 -2 -2 -2 -3 -3 -4 -4 -4 -5 -5 -6 -6 -6 -6 -7 -7 -7 -7 -7 -8 -7 -7 -7 -7 -8 -8 -8 -8 -8 -9 -9
-6 -8 -9 -10 -10 -11 -11 -11 -12 -12 -12 -12 -13 -13 -13 -14 -14 -14 -14 -13 -13 -12 -12 -12 -12 -12 -12 -12 -12 -12 -12 -12 -12 -11 -10 -10 -8 -7 -6 -4 -3 -2 -2 -2 -2 -2 -2 -2 -2 -2 -2 -2 -2 -2 -2 -3 -3 -3 -3 -4 -4 -5 -6 -6 -6 -7 -7 -7 -7 -7 -7 -7 -8 -8 -7 -7 -7 -7 -8 -8 -8 -9 -9 -9 -9
-8 -9 -10 -10 -11 -11 -12 -12 -13 -13 -13 -13 -13 -14 -14 -14 -14 -14 -14 -14 -13 -13 -13 -13 -13 -13 -13 -12 -12 -12 -12 -12 -12 -12 -11 -10 -9 -7 -6 -4 -3 -3 -2 -2 -2 -2 -2 -2 -2 -2 -2 -2 -2 -2 -3 -3 -3 -3 -4 -4 -5 -5 -6 -7 -7 -7 -7 -7 -7 -7 -7 -8 -8 -8 -7 -6 -6 -7 -8 -8 -8 -9 -9 -9 -9
-9 -10 -11 -11 -11 -12 -12 -13 -14 -13 -13 -14 -14 -14 -14 -14 -15 -14 -14 -14 -14 -14 -13 -13 -13 -13 -13 -13 -13 -13 -13 -13 -13 -12 -11 -10 -9 -7 -5 -4 -3 -3 -3 -2 -2 -2 -2 -2 -2 -2 -2 -3 -3 -3 -3 -4 -4 -4 -5 -5 -5 -6 -6 -7 -7 -7 -7 -8 -8 -8 -8 -8 -8 -8 -7 -6 -6 -7 -8 -8 -8 -8 -8 -9 -9
-9 -11 -11 -12 -12 -13 -13 -14 -14 -14 -14 -14 -15 -15 -15 -15 -15 -15 -14 -15 -14 -14 -14 -14 -14 -14 -14 -14 -14 -14 -14 -13 -13 -12 -11 -9 -8 -6 -4 -3 -3 -3 -3 -3 -3 -2 -2 -2 -3 -3 -3 -3 -4 -4 -4 -5 -5 -6 -5 -5 -5 -6 -6 -6 -7 -8 -8 -8 -8 -8 -8 -7 -7 -8 -7 -6 -6 -7 -8 -8 -8 -8 -9 -9 -9
-10 -11 -12 -13 -13 -14 -14 -14 -14 -14 -15 -15 -15 -15 -15 -15 -15 -15 -15 -15 -15 -14 -15 -15 -15 -15 -15 -15 -14 -14 -14 -14 -13 -11 -10 -8 -7 -5 -3 -3 -3 -3 -3 -3 -2 -2 -2 -3 -3 -4 -4 -4 -5 -5 -6 -6 -6 -6 -6 -5 -6 -6 -6 -6 -7 -8 -8 -8 -8 -8 -8 -8 -7 -7 -7 -6 -6 -7 -8 -8 -8 -8 -9 -9 -10
-11 -12 -13 -14 -14 -14 -14 -14 -15 -15 -15 -15 -15 -15 -15 -15 -15 -15 -15 -15 -15 -15 -15 -15 -16 -15 -15 -15 -15 -15 -14 -14 -12 -11 -9 -8 -6 -4 -3 -3 -3 -3 -2 -2 -2 -2 -3 -3 -4 -5 -5 -5 -5 -6 -6 -7 -7 -6 -6 -6 -5 -6 -6 -6 -7 -7 -8 -8 -8 -8 -8 -8 -7 -7 -7 -6 -6 -7 -8 -8 -8 -8 -9 -10 -10
-13 -13 -14 -14 -15 -15 -15 -15 -15 -15 -16 -16 -16 -15 -15 -15 -15 -16 -16 -15 -15 -16 -16 -16 -16 -16 -16 -16 -15 -15 -14 -13 -12 -11 -9 -8 -7 -5 -4 -3 -3 -3 -2 -2 -2 -3 -3 -4 -5 -5 -5 -5 -6 -7 -7 -7 -7 -7 -6 -6 -5 -6 -6 -6 -7 -7 -8 -8 -8 -8 -8 -7 -7 -7 -6 -6 -7 -8 -8 -8 -8 -9 -10 -10 -10
-13 -14 -14 -15 -15 -15 -15 -15 -15 -16 -16 -16 -16 -16 -16 -16 -16 -16 -16 -16 -16 -16 -16 -16 -16 -16 -16 -16 -15 -15 -14 -13 -12 -11 -10 -9 -8 -7 -5 -4 -3 -3 -2 -3 -3 -4 -4 -5 -5 -5 -6 -6 -7 -7 -7 -7 -7 -7 -6 -5 -5 -6 -6 -7 -7 -8 -8 -8 -8 -8 -7 -7 -7 -7 -7 -7 -8 -8 -8 -8 -9 -10 -10 -11 -11
-14 -14 -15 -15 -15 -15 -16 -16 -16 -16 -16 -16 -16 -16 -16 -16 -16 -16 -16 -16 -16 -17 -17 -17 -16 -16 -16 -16 -15 -15 -14 -13 -12 -12 -11 -10 -9 -8 -7 -6 -4 -3 -3 -3 -4 -4 -5 -5 -5 -5 -6 -6 -7 -7 -7 -7 -7 -6 -6 -5 -5 -6 -7 -7 -8 -8 -8 -8 -8 -7 -7 -7 -7 -7 -7 -8 -8 -8 -9 -10 -10 -10 -11 -11 -11
-14 -15 -15 -15 -16 -16 -16 -16 -16 -16 -16 -16 -16 -16 -16 -16 -16 -16 -16 -16 -17 -17 -17 -17 -17 -16 -16 -16 -15 -15 -14 -14 -13 -12 -11 -11 -10 -9 -8 -7 -5 -4 -4 -5 -5 -5 -5 -5 -5 -5 -6 -6 -7 -7 -8 -7 -7 -6 -6 -6 -6 -7 -7 -8 -8 -8 -8 -8 -8 -7 -7 -8 -8 -9 -9 -9 -10 -10 -10 -11 -11 -11 -12 -12 -12
-15 -15 -15 -16 -16 -16 -16 -16 -16 -16 -16 -16 -16 -17 -17 -17 -17 -16 -17 -17 -17 -17 -17 -17 -17 -16 -16 -16 -16 -15 -15 -14 -13 -13 -12 -12 -11 -10 -9 -8 -6 -5 -5 -6 -6 -6 -6 -6 -6 -6 -6 -6 -6 -7 -8 -8 -7 -6 -6 -6 -6 -7 -7 -8 -8 -8 -8 -8 -9 -9 -9 -10 -10 -11 -11 -12 -12 -12 -12 -13 -12 -12 -12 -12 -12
-15 -15 -16 -16 -16 -16 -17 -17 -17 -17 -17 -17 -17 -17 -17 -17 -17 -17 -17 -17 -17 -17 -17 -17 -16 -16 -16 -16 -16 -15 -15 -14 -14 -13 -13 -13 -12 -11 -9 -8 -6 -5 -5 -6 -6 -6 -7 -7 -7 -7 -6 -6 -7 -7 -8 -8 -7 -7 -6 -6 -7 -7 -8 -8 -8 -8 -8 -9 -10 -10 -10 -11 -11 -12 -13 -13 -13 -14 -14 -14 -14 -13 -13 -13 -13
-15 -16 -16 -16 -17 -17 -17 -17 -17 -17 -17 -17 -17 -17 -17 -17 -17 -17 -17 -17 -17 -17 -17 -16 -16 -16 -16 -16 -16 -15 -15 -15 -14 -14 -13 -13 -12 -11 -9 -8 -7 -6 -6 -6 -6 -7 -7 -8 -8 -7 -7 -7 -7 -7 -8 -7 -7 -6 -6 -6 -7 -7 -8 -8 -8 -8 -9 -10 -11 -10 -11 -11 -11 -12 -13 -13 -14 -14 -14 -14 -15 -14 -14 -14 -14
Height
808 807 806 805 804 802 799 797 795 793 791 789 786 784 782 779 778 776 775 774 772 770 769 768 766 764 761 759 757 755 754 752 750 749 748 746 745 742 740 738 738 738 738 738 737 737 737 736 735 736 737 737 736 736 736 738 740 741 744 746 748 751 753 755 758 762 765 768 771 774 775 776 777 778 779 780 781 783 784 785 786 787 788 789 790
806 806 805 804 803 800 798 795 793 791 789 787 785 783 781 778 777 775 774 773 772 770 769 767 766 764 762 759 756 754 752 751 749 748 747 746 745 743 741 738 737 736 736 736 735 735 734 733 732 732 733 734 734 735 734 735 737 738 740 742 743 745 747 750 752 755 758 762 766 771 773 774 775 775 776 777 778 780 781 782 783 784 785 786 787
806 806 804 803 803 800 796 793 791 790 788 786 783 781 779 777 775 774 772 772 770 770 769 767 766 764 762 759 756 753 751 749 747 746 745 744 743 742 741 739 737 735 734 734 733 733 733 732 730 729 729 730 731 732 732 732 733 734 735 737 739 742 744 746 746 747 750 756 762 765 766 769 771 771 772 773 775 777 778 779 780 781 783 784 785
805 804 800 798 800 798 795 792 789 788 786 784 781 779 777 775 774 772 771 770 768 768 767 766 765 763 761 758 755 752 750 747 745 743 742 741 740 739 739 738 736 734 732 731 731 730 730 730 729 727 726 726 727 728 729 730 730 730 732 733 735 737 739 741 742 743 745 748 753 757 759 762 762 762 766 769 771 773 774 775 776 778 780 781 782
803 801 797 796 797 796 793 791 788 786 784 782 780 778 776 773 772 771 769 768 766 765 764 763 762 761 759 757 755 752 749 746 744 741 739 739 738 737 736 736 734 733 732 730 729 727 727 727 726 725 723 723 724 725 726 727 727 727 728 730 731 732 734 737 738 739 740 740 743 747 752 753 751 754 761 765 768 770 771 772 773 774 776 778 779
802 800 798 797 797 794 791 788 785 783 782 780 778 776 774 772 770 768 766 765 764 762 761 760 758 757 756 755 753 751 748 746 743 741 739 738 737 736 735 734 732 731 729 728 727 726 724 723 723 722 721 721 721 722 723 724 725 724 725 726 727 729 731 733 733 735 737 737 737 738 741 743 745 750 756 761 766 768 768 770 771 772 774 775 776
800 798 798 796 794 792 788 785 783 781 780 779 777 774 772 769 767 766 764 763 762 760 759 758 756 754 754 752 751 749 747 744 743 741 739 737 736 735 734 733 731 729 727 726 725 724 722 721 720 719 718 718 718 719 719 721 721 721 722 723 724 726 728 727 728 730 733 734 734 735 737 738 741 745 748 753 761 765 766 767 768 769 771 772 774
798 796 795 794 792 790 786 783 781 779 777 776 775 772 770 767 764 763 762 761 760 759 757 756 754 752 751 749 747 746 744 742 741 739 738 737 735 733 732 731 729 728 726 725 723 722 720 719 719 717 715 714 715 716 716 717 718 718 719 721 722 724 723 723 724 726 726 727 730 732 734 735 737 740 742 745 750 757 762 764 765 767 768 769 771
797 796 794 792 791 788 785 781 779 777 775 774 773 771 767 765 763 762 761 760 758 756 755 753 752 750 748 746 744 742 741 740 738 737 736 734 733 731 730 728 727 726 724 723 721 720 718 717 717 716 714 712 712 712 713 714 714 715 716 718 720 720 720 721 722 721 721 723 725 728 730 733 735 737 739 741 743 747 753 757 760 763 765 766 767
798 796 794 792 790 787 783 779 776 774 773 772 771 768 766 764 763 761 760 758 756 754 752 751 749 748 746 744 741 739 738 736 735 734 732 731 730 728 727 726 724 723 722 721 719 717 716 715 714 714 713 711 710 709 709 709 710 711 712 714 717 718 718 719 719 719 719 720 721 722 725 727 730 733 735 738 739 741 745 750 753 756 759 761 763
796 794 793 790 788 784 781 777 773 771 771 770 768 766 765 763 761 760 757 755 753 751 750 748 746 745 743 741 739 737 735 733 732 730 729 728 726 725 723 722 721 720 719 718 717 716 714 713 712 711 711 710 709 707 706 706 706 708 709 711 714 715 716 716 717 717 717 717 717 717 718 719 722 725 728 732 736 737 740 743 747 749 752 755 758
795 792 790 786 782 779 777 775 772 771 770 768 766 765 763 762 760 757 754 752 751 749 747 745 744 742 740 739 737 735 733 730 728 727 725 724 722 721 720 719 718 716 715 715 714 714 712 711 710 709 709 707 707 706 704 703 703 704 705 708 710 712 713 714 714 714 714 714 713 713 713 715 717 720 723 728 731 734 737 739 742 746 749 751 754
791 790 787 783 779 776 775 774 771 770 768 766 764 763 761 760 758 755 752 750 748 747 745 743 741 739 737 736 733 732 730 727 725 723 722 721 719 718 717 716 715 713 712 711 710 710 709 708 707 707 706 706 705 704 703 702 701 701 702 704 707 709 710 711 710 710 711 711 711 710 710 712 714 717 721 724 727 731 734 736 739 743 746 749 752
789 788 785 781 779 777 775 774 771 769 767 765 763 761 760 758 755 753 750 748 747 744 742 740 738 737 735 733 731 729 726 724 722 720 719 718 716 715 714 713 712 711 709 708 707 707 706 705 704 704 704 704 703 702 701 701 700 700 700 701 703 705 706 707 707 707 708 707 708 708 707 709 711 714 717 720 723 726 729 731 736 741 744 746 749
788 787 784 781 779 778 776 773 771 769 766 764 761 760 759 757 753 751 748 746 745 742 740 737 735 733 731 729 727 725 724 721 719 717 716 714 713 712 711 710 709 708 707 705 704 704 702 701 701 700 700 700 700 700 699 699 699 699 699 699 700 701 702 703 704 704 704 704 705 705 705 706 708 710 713 715 717 720 723 726 731 737 742 745 747
787 786 783 782 779 777 775 772 770 767 765 762 760 760 759 755 752 749 746 744 743 740 738 735 733 730 728 726 724 722 720 718 716 714 713 712 710 709 708 707 706 705 704 702 701 700 699 698 698 697 697 697 697 697 697 696 696 696 696 697 697 698 699 699 700 700 701 701 701 702 703 704 705 706 708 711 713 715 719 722 725 729 734 739 744
787 785 782 781 778 776 773 771 768 766 764 762 761 760 757 753 750 747 745 743 740 738 735 733 730 727 725 722 720 718 716 714 712 710 709 708 707 706 704 703 702 701 700 699 698 697 696 695 695 694 694 694 694 693 693 692 693 693 693 693 693 694 695 695 696 697 697 698 698 700 700 701 703 704 704 706 709 712 715 718 720 722 725 730 735
787 784 782 779 776 774 771 769 767 765 765 763 760 758 754 751 748 746 745 741 738 736 733 730 728 725 722 719 717 715 713 710 708 707 705 704 703 702 701 700 699 698 697 695 694 693 693 692 692 691 691 692 691 691 690 689 689 689 689 690 690 691 692 692 692 693 694 694 695 696 697 699 701 701 701 703 705 708 711 714 716 718 720 722 725
785 782 781 777 774 773 769 767 766 764 764 761 757 755 751 749 746 745 743 739 736 734 731 728 725 722 719 716 715 712 709 707 705 703 702 701 699 698 697 696 695 694 693 692 691 690 689 689 688 688 688 688 688 688 688 687 686 685 685 686 686 687 688 688 689 689 690 691 691 692 694 695 697 698 699 700 702 705 708 710 712 714 716 717 718
782 779 779 776 774 771 768 767 765 764 762 758 755 753 750 748 745 743 741 737 734 732 729 726 722 719 716 713 712 709 706 704 702 701 699 697 696 694 693 692 691 690 689 688 687 687 686 686 685 685 684 684 684 684 684 684 683 683 682 682 683 683 684 684 685 686 687 687 687 688 689 691 693 695 695 696 699 702 705 707 709 711 712 714 715
781 778 776 774 772 769 767 767 765 763 760 756 754 751 748 747 743 741 739 735 732 729 726 722 718 715 713 710 709 706 704 702 699 698 696 693 692 690 689 688 686 686 685 684 684 683 683 683 682 682 681 681 681 681 681 681 680 680 679 680 680 680 681 681 681 682 683 683 684 684 685 687 689 690 691 693 695 699 701 703 706 708 709 710 712
780 777 775 772 770 768 767 766 763 760 757 754 753 750 747 745 742 739 736 732 729 726 723 719 716 713 711 708 707 704 701 699 696 694 692 690 689 687 686 685 683 682 681 680 680 679 679 679 679 679 678 678 678 677 677 677 677 677 677 677 677 677 677 677 678 678 679 680 680 681 681 683 685 686 687 689 691 694 697 700 702 705 706 708 709
779 775 773 771 770 768 766 763 760 757 755 753 751 748 746 744 741 737 734 731 728 724 721 718 715 712 709 707 704 701 698 695 692 691 689 687 685 684 682 681 679 678 677 676 676 675 675 675 675 675 675 675 674 674 674 673 673 674 674 674 675 675 675 675 675 675 675 676 677 677 678 679 681 683 684 686 687 690 693 696 699 701 704 705 707
777 773 771 770 769 767 763 759 757 754 752 750 748 747 745 743 740 738 735 731 728 724 721 717 713 710 707 703 700 697 695 692 689 687 685 684 682 680 679 677 676 674 673 672 672 671 671 670 670 670 670 670 670 670 669 669 669 670 671 671 671 672 672 672 672 672 672 672 673 674 674 675 678 680 681 683 683 686 689 691 695 698 701 703 705
774 771 768 768 767 764 761 758 755 752 749 747 746 745 744 741 740 738 735 731 727 724 719 715 711 706 702 699 696 693 690 687 686 683 681 680 679 677 676 674 672 671 669 668 667 666 666 665 665 665 665 665 665 665 665 664 664 665 666 667 667 668 668 668 668 668 668 669 670 670 671 672 674 676 678 680 680 682 684 687 691 695 698 701 703
773 768 766 766 764 762 760 757 754 751 748 746 745 744 742 740 738 735 732 728 725 722 717 712 707 700 696 693 691 688 685 682 681 679 678 676 675 673 672 670 668 666 664 663 662 661 661 660 660 660 660 660 660 660 660 660 660 660 661 662 663 663 664 664 664 663 663 665 666 667 668 669 670 672 673 675 677 679 681 684 687 691 695 698 700
772 768 766 764 762 760 757 755 752 749 747 745 743 741 740 738 735 732 729 725 720 718 714 708 702 696 692 689 686 683 681 678 676 675 673 672 670 669 667 665 663 661 660 658 657 657 656 656 656 655 655 656 655 656 655 656 656 656 657 657 658 659 659 659 659 659 659 660 661 662 663 664 665 666 668 670 673 675 677 680 683 688 691 694 696
771 767 765 762 759 757 754 752 749 746 744 743 741 739 737 735 733 729 725 721 717 714 709 704 699 694 690 686 683 680 678 676 674 672 670 668 666 664 661 659 658 656 655 654 653 652 652 652 652 651 652 652 651 651 651 651 652 652 653 653 653 654 654 654 654 655 654 655 656 657 658 660 661 661 663 666 668 671 673 676 680 684 688 690 692
769 764 762 760 757 755 751 748 745 743 741 740 737 735 733 731 729 725 721 718 716 711 706 702 698 693 689 685 681 678 676 674 672 669 667 664 662 660 657 655 653 652 651 649 648 648 648 647 648 648 648 648 647 647 647 647 647 648 648 648 648 649 649 649 649 650 650 650 651 652 653 654 656 657 659 661 664 667 669 672 675 680 683 686 689
766 762 759 758 755 752 749 745 742 741 739 737 734 731 728 726 723 721 718 716 713 708 704 700 695 690 686 682 679 677 674 672 669 666 664 661 659 656 653 651 650 648 647 646 644 644 643 643 643 643 643 643 643 643 643 643 643 643 643 643 644 644 644 644 644 644 645 645 646 647 648 649 652 654 656 658 661 663 666 668 671 675 678 681 685
764 761 758 755 752 748 745 742 741 741 738 735 732 729 726 723 719 717 716 713 709 704 700 696 692 687 684 680 677 674 671 668 666 663 660 658 655 653 650 648 646 645 644 642 640 639 639 639 639 639 639 638 638 638 637 638 638 638 639 639 638 638 639 639 639 639 639 639 640 641 643 645 647 650 652 654 657 660 663 666 669 671 673 676 679
763 759 755 752 749 745 742 741 741 740 738 735 731 726 723 719 717 715 713 709 705 701 696 693 689 685 682 678 675 671 668 665 663 660 657 654 652 649 646 644 642 641 639 637 636 634 634 634 634 634 634 633 633 633 633 633 633 633 634 634 633 633 633 634 635 634 634 635 635 636 638 641 643 645 648 651 653 657 660 664 666 669 671 673 675
761 757 753 750 746 743 742 742 741 739 737 735 730 726 722 718 716 714 710 706 702 697 694 690 687 683 680 676 672 669 666 663 660 658 655 651 648 645 643 641 638 636 634 632 630 630 629 629 629 629 629 628 627 628 628 628 628 628 629 629 628 628 628 629 629 629 630 631 632 632 633 636 639 642 645 647 649 653 658 661 664 666 669 672 674
759 755 752 747 744 744 744 742 741 739 736 733 729 725 722 720 717 713 708 704 699 695 693 689 685 681 677 674 670 667 664 661 658 655 651 648 644 642 639 637 634 631 629 627 626 625 625 625 625 624 624 624 623 623 623 623 623 623 624 624 624 624 623 623 623 624 625 626 627 628 629 632 635 638 641 643 646 650 654 658 661 664 666 669 672
759 755 750 747 745 744 743 741 740 737 733 730 727 724 721 719 716 712 706 702 698 695 692 688 683 679 676 672 668 665 662 659 655 652 648 644 641 638 635 632 629 627 624 622 622 622 621 621 621 621 620 620 619 619 619 619 619 619 619 620 619 619 618 617 618 619 620 621 622 624 626 628 631 634 637 640 642 645 650 654 658 660 662 666 668
762 756 750 748 747 745 743 740 737 735 731 728 726 723 720 717 714 711 705 700 698 694 690 685 681 678 674 671 667 664 660 657 653 649 645 641 637 634 631 629 626 623 621 619 619 618 618 617 617 617 617 615 615 615 615 614 614 614 615 615 614 614 614 613 613 614 616 616 617 620 623 626 628 631 634 637 640 642 646 650 654 656 659 662 665
763 757 753 751 749 746 743 739 735 734 732 728 725 722 718 715 712 709 705 700 697 692 687 683 680 677 674 670 666 663 658 654 650 646 642 638 634 631 628 626 623 620 618 617 616 615 614 614 613 613 613 611 610 610 610 610 610 610 610 611 610 610 609 608 609 610 611 613 614 617 620 623 625 628 631 635 638 640 643 647 651 654 657 660 664
762 757 753 752 749 746 743 739 735 734 733 728 724 721 717 714 711 707 703 699 695 690 686 682 679 676 672 668 665 661 656 651 647 643 639 635 632 628 625 623 620 618 615 614 613 612 611 611 610 609 609 608 606 606 606 606 605 606 606 606 606 605 605 604 605 607 608 610 612 615 618 620 623 626 629 633 636 638 641 644 648 651 654 658 661
763 759 756 752 748 744 741 738 736 733 730 726 723 720 717 713 709 705 701 697 693 689 685 682 678 675 671 667 663 658 654 650 645 640 636 633 629 626 623 620 618 615 614 612 611 610 608 607 606 605 605 604 602 601 601 601 601 602 602 602 601 601 601 601 602 605 606 608 611 613 616 618 620 624 628 631 633 635 638 642 645 649 652 655 658
761 759 756 752 748 744 739 736 735 732 727 724 722 720 716 711 708 704 700 696 692 688 684 681 677 673 669 665 661 656 652 647 642 637 633 630 626 623 620 617 616 614 612 611 609 607 605 604 603 602 600 599 598 597 597 597 597 598 598 598 597 597 597 598 600 602 605 607 609 612 614 616 619 622 626 629 631 634 637 640 643 645 648 651 655
762 759 756 751 748 745 740 738 735 730 726 724 722 718 714 710 706 703 699 695 691 687 683 679 675 671 667 663 659 654 649 644 639 635 630 626 623 620 617 616 614 613 611 609 607 605 602 600 600 599 597 596 595 594 593 593 594 594 594 594 594 593 594 596 598 600 603 605 607 610 612 615 618 621 624 627 629 632 635 638 640 643 645 649 652
762 759 756 751 747 743 740 737 735 730 726 724 721 717 712 709 705 701 697 693 690 685 682 678 674 669 665 660 656 651 646 641 636 631 627 623 620 617 615 614 612 610 608 606 604 602 600 598 597 596 594 593 592 591 591 591 591 591 590 590 590 590 592 594 597 599 601 603 605 608 610 613 616 619 622 625 628 631 634 637 640 644 647 649 652
760 757 755 752 747 742 738 736 733 730 727 724 720 715 711 707 703 700 696 692 688 684 680 677 673 668 663 658 653 648 644 639 633 629 626 621 617 614 613 611 610 608 606 604 601 599 598 596 595 594 592 591 590 589 589 589 588 588 587 587 588 589 590 592 594 597 599 602 604 607 609 612 615 618 621 623 626 630 634 637 641 645 647 649 652
760 757 754 751 747 741 737 735 732 729 726 723 718 713 709 705 702 698 695 691 687 683 680 675 671 666 661 656 651 646 641 637 632 628 624 620 615 612 610 608 607 605 603 601 599 597 596 595 594 593 592 590 589 588 587 587 586 585 585 585 586 587 589 591 593 595 598 601 603 606 609 611 615 618 620 623 626 629 633 637 641 644 646 648 651
760 757 753 751 746 741 737 734 731 728 725 721 717 712 707 704 700 697 693 689 685 682 678 674 669 665 660 654 649 644 640 635 631 628 624 620 615 612 609 607 604 602 600 598 597 596 596 594 593 592 590 589 588 587 586 585 584 583 583 583 585 586 588 590 592 594 597 600 602 605 608 611 614 617 620 622 625 629 633 638 641 643 645 647 650
759 755 752 749 745 741 737 733 729 726 723 719 715 711 706 702 699 695 692 688 685 681 677 672 668 663 658 653 647 642 638 634 631 627 624 621 617 613 610 607 604 601 599 598 597 596 594 593 592 590 589 588 587 586 585 584 583 583 582 582 584 586 588 590 592 595 598 601 603 606 609 611 614 617 620 622 625 630 634 638 640 642 644 647 649
759 754 751 747 743 739 736 732 727 724 721 717 713 710 705 701 698 694 690 687 684 680 675 671 666 661 657 652 647 642 638 633 630 627 623 620 617 614 612 608 604 602 600 598 596 595 593 592 590 589 588 587 587 586 585 584 583 583 582 583 585 587 589 591 594 597 600 602 605 607 609 612 615 618 621 623 626 630 634 637 640 643 645 647 649
759 755 750 746 743 739 735 731 727 722 719 715 711 707 704 700 696 693 689 686 682 678 673 669 664 660 656 652 647 643 638 634 630 627 623 620 616 614 611 608 605 603 601 598 596 594 593 591 590 588 587 587 586 586 585 584 584 583 583 584 586 588 591 593 595 598 601 603 606 608 610 613 615 617 620 623 627 631 634 637 640 643 646 648 650
758 754 750 746 742 738 734 731 726 721 717 713 709 706 702 699 695 692 688 684 680 676 671 667 663 659 654 651 647 643 639 635 630 626 623 620 618 615 612 608 605 603 602 599 596 594 592 592 591 589 587 586 586 586 585 584 584 584 584 585 586 589 591 594 596 598 601 604 607 609 612 614 617 619 621 625 629 632 636 639 642 644 646 649 651
757 753 749 746 742 738 734 730 725 720 716 712 708 704 701 698 694 690 687 684 679 674 669 665 661 657 653 650 646 642 639 636 631 626 621 617 614 613 612 608 604 602 601 599 597 594 593 592 591 589 587 586 586 585 585 585 585 586 586 586 588 590 592 595 597 599 601 604 608 611 614 617 619 621 624 628 631 634 637 641 644 645 648 650 653
755 751 747 744 741 737 733 728 723 719 715 711 707 703 699 696 693 689 686 683 678 674 669 664 660 657 653 649 646 642 639 636 632 629 625 619 613 609 608 607 605 602 599 597 596 594 593 592 590 588 587 586 586 585 585 585 586 587 587 588 590 592 594 596 598 600 603 606 610 613 616 618 620 623 626 629 632 635 638 641 644 647 649 651 654
Wind_Speed
11 14 15 16 18 21 22 22 23 24 23 22 20 18 17 17 16 16 16 16 17 16 16 17 17 17 17 16 16 15 15 15 16 16 12 10 8 7 6 7 9 12 15 17 19 23 26 26 25 27 29 27 26 28 29 30 33 32 30 30 31 28 23 24 26 23 18 14 13 13 15 16 17 17 17 18 17 17 17 18 19 20 21 20 20
11 14 16 18 21 24 24 24 25 25 25 24 22 20 20 18 16 16 15 16 16 16 16 17 17 17 18 18 17 16 15 14 15 16 16 13 11 11 9 7 7 9 12 14 16 19 22 25 26 27 30 31 27 25 26 28 31 30 28 26 28 29 25 25 29 25 18 15 12 10 11 13 16 18 19 19 18 18 18 19 19 19 20 21 21
12 14 17 21 24 25 25 26 27 26 26 25 23 22 21 18 17 16 16 16 16 16 17 18 19 19 19 19 19 18 17 16 15 17 19 16 13 14 13 11 9 9 10 12 14 16 19 21 23 25 28 30 29 27 26 27 28 28 30 27 24 25 24 25 32 30 21 18 13 8 8 8 11 16 19 20 20 19 19 19 19 19 19 20 20
14 16 19 23 25 25 26 29 29 27 25 25 25 23 21 19 18 18 17 17 17 17 19 20 21 21 19 19 19 19 18 18 17 17 18 17 14 14 14 14 13 10 10 12 13 15 17 18 19 21 24 27 28 28 28 27 26 26 29 28 24 23 22 24 30 31 25 21 13 6 6 7 7 10 13 18 20 20 19 19 18 18 18 19 19
16 18 21 23 25 25 26 28 28 26 26 25 25 24 22 20 19 19 19 20 20 21 23 22 22 22 21 19 19 19 18 17 17 16 15 16 15 14 14 15 15 13 13 12 13 15 17 18 18 18 20 23 25 26 27 26 26 26 27 29 28 25 23 21 25 30 29 27 18 9 7 7 7 8 9 11 17 18 17 17 17 17 18 19 19
15 17 18 20 24 26 27 29 28 26 25 26 26 24 23 22 21 21 22 23 23 24 25 24 23 23 22 21 19 18 18 17 17 17 17 17 18 17 16 16 16 15 14 14 13 14 17 18 19 19 18 20 21 23 25 25 24 26 27 29 30 27 24 20 21 27 29 29 26 19 14 8 6 9 8 6 10 13 15 16 16 16 17 19 19
14 16 18 19 23 27 29 30 29 27 26 27 27 25 23 23 24 24 24 24 24 24 25 25 25 24 23 23 22 20 19 19 19 19 19 19 19 19 19 18 17 16 15 14 14 15 16 17 18 20 19 19 20 21 23 24 23 23 25 27 29 28 27 23 21 24 25 26 29 26 20 13 10 11 8 5 6 8 12 14 15 16 16 17 18
15 16 17 20 24 29 32 33 30 28 29 28 28 27 25 25 25 24 24 24 24 25 25 25 25 25 25 25 24 22 21 21 21 20 20 20 21 20 20 19 18 18 17 15 14 14 14 17 18 19 21 21 20 21 22 22 22 22 22 25 27 27 29 27 21 23 24 24 26 26 22 17 15 14 10 7 6 6 9 11 12 15 16 17 17
17 17 18 21 27 31 33 32 29 28 29 29 28 27 26 25 25 25 25 25 25 25 26 25 25 26 26 26 25 24 22 22 22 20 20 20 21 22 21 20 20 19 18 17 16 14 13 14 17 19 20 21 22 22 21 21 21 21 21 23 26 27 28 28 24 23 24 23 24 24 22 17 15 15 13 10 6 6 7 8 10 13 14 16 18
17 18 21 25 30 33 34 33 31 29 29 29 28 27 26 25 25 25 25 26 26 27 27 26 25 25 26 27 27 27 25 23 22 22 21 20 21 22 21 21 20 19 18 17 16 15 14 13 14 16 18 19 21 21 21 21 21 22 22 22 25 26 26 27 27 23 22 24 25 24 22 18 13 11 13 12 8 6 6 7 11 13 11 14 19
18 18 22 29 33 35 35 33 32 31 29 28 27 26 25 25 24 25 26 27 28 28 27 27 26 25 26 27 28 28 27 25 23 22 21 20 20 21 21 20 20 19 19 19 18 15 14 13 13 14 15 17 19 19 20 21 21 21 22 23 24 26 26 26 28 26 22 23 26 25 25 22 16 13 14 16 11 7 6 7 10 14 12 12 18
18 18 21 27 31 33 34 33 32 31 29 28 28 27 25 24 25 27 28 29 29 28 28 27 26 26 27 27 28 28 27 25 23 23 22 22 21 21 21 20 19 19 19 20 20 18 17 16 14 13 13 14 16 17 18 19 19 20 21 23 23 25 27 26 26 27 25 23 24 26 26 24 22 19 18 20 18 14 11 6 6 12 10 9 16
19 20 22 23 24 28 32 32 31 30 29 29 30 27 23 24 26 28 30 30 29 28 28 27 27 27 27 27 27 27 27 26 24 23 22 21 21 20 20 19 19 19 18 18 19 20 19 18 16 15 14 13 14 15 16 16 17 18 20 22 23 24 26 27 26 27 27 25 23 23 24 25 24 22 19 20 21 18 14 8 7 11 8 6 14
22 22 24 22 22 27 29 29 30 29 29 31 30 25 22 25 28 30 31 30 29 29 28 28 28 28 28 27 27 27 26 26 25 23 22 21 20 20 20 19 19 20 20 19 18 19 20 20 19 18 16 15 14 14 15 15 16 17 19 21 23 24 24 26 27 26 27 27 24 21 22 25 25 24 21 21 22 21 17 11 7 8 8 7 10
24 24 24 23 26 29 28 28 29 29 30 31 28 23 22 27 30 32 33 30 29 29 29 29 28 28 27 27 27 26 26 26 25 24 23 22 21 21 22 21 20 20 20 20 19 18 19 19 19 18 18 17 16 15 15 16 17 17 18 19 21 23 24 25 26 27 26 26 26 23 21 23 24 25 25 22 24 27 25 21 15 8 6 6 6
25 24 23 24 28 29 28 28 29 30 31 30 26 23 25 30 32 32 33 31 29 29 29 29 29 28 27 27 27 27 26 25 24 23 23 24 23 23 23 22 21 21 21 20 20 19 18 18 18 18 18 18 18 17 16 16 17 18 19 20 20 21 22 24 25 26 27 28 27 26 24 23 22 25 28 25 26 32 31 30 26 15 7 6 5
26 23 21 23 27 29 29 29 30 29 28 28 26 25 28 32 32 31 32 32 30 30 30 29 28 28 28 27 28 27 25 23 22 23 23 24 24 23 23 23 22 22 21 20 19 19 19 19 19 18 18 18 18 18 18 17 16 18 20 21 21 21 21 23 24 25 27 28 28 27 26 26 23 24 29 30 29 32 32 32 33 28 18 10 6
26 24 23 22 25 29 30 30 30 25 23 26 26 27 30 31 30 30 32 31 30 29 29 28 28 28 28 26 27 29 27 23 22 23 23 23 23 23 23 23 23 23 22 21 20 19 20 20 20 19 18 18 17 16 17 17 16 18 21 21 21 21 21 22 23 24 25 25 27 28 28 27 25 25 28 31 31 32 33 33 35 35 30 19 8
23 23 21 21 25 29 30 31 29 23 22 28 29 30 32 32 31 32 32 31 29 28 28 28 29 28 26 25 26 30 30 27 24 22 23 24 23 24 24 24 24 23 23 21 21 20 21 21 20 20 19 19 18 17 15 14 15 16 18 21 22 21 20 20 21 22 23 23 25 27 28 27 27 27 27 29 32 31 32 34 34 34 34 30 19
22 22 20 20 26 30 31 30 27 24 27 32 32 31 32 32 31 31 32 32 31 29 28 29 30 28 27 27 27 28 30 29 25 23 24 24 23 23 24 24 24 23 23 21 21 21 21 21 21 21 21 20 20 19 17 15 15 15 16 17 20 21 21 20 20 21 22 23 24 26 28 28 27 27 27 29 32 32 31 33 35 34 33 33 28
23 22 21 21 25 30 30 27 25 27 31 32 31 31 30 30 30 29 30 29 29 29 29 30 30 28 27 27 27 27 29 29 25 23 24 23 23 22 23 23 23 22 22 22 22 22 21 22 22 22 22 22 21 21 20 18 17 17 17 16 17 20 22 22 21 21 21 24 26 27 28 28 27 27 28 29 31 31 32 32 33 33 31 31 30
24 23 21 20 23 27 28 27 28 31 31 30 30 29 28 29 29 28 29 28 28 30 31 31 30 27 28 29 30 32 33 29 24 23 23 22 21 21 20 21 22 22 23 23 23 23 22 22 22 23 23 23 23 22 21 19 19 19 18 18 17 18 21 23 22 22 23 24 26 27 28 28 27 28 28 29 31 32 33 33 32 31 30 30 32
24 23 21 19 22 25 27 30 33 32 29 28 29 27 26 28 29 29 30 31 33 33 33 34 32 30 31 33 33 33 33 29 24 23 23 22 21 21 20 20 21 22 24 25 25 24 23 23 23 23 23 23 23 22 21 20 20 20 20 19 19 18 20 22 23 25 26 25 26 27 28 28 27 28 28 29 32 34 34 33 32 30 29 29 31
25 23 20 20 23 25 27 31 33 31 29 29 28 26 26 26 27 30 32 33 33 34 34 34 33 33 34 32 31 31 31 30 26 23 22 21 22 22 22 21 22 22 23 25 26 26 26 25 24 24 23 23 23 23 22 21 21 22 22 20 20 20 21 22 24 26 27 26 26 27 28 28 28 28 27 28 32 34 34 35 31 28 28 29 30
26 25 22 20 21 22 25 29 30 30 32 30 25 24 25 24 26 29 32 32 32 33 35 37 38 39 38 36 34 32 30 28 26 24 23 23 23 24 24 24 25 26 25 24 25 26 27 27 25 25 25 24 24 23 22 21 22 24 24 22 22 22 22 23 24 27 29 29 28 28 29 29 28 28 27 28 31 33 33 34 30 26 27 30 29
27 26 22 20 19 21 26 29 28 28 30 27 22 21 26 29 28 29 29 31 34 36 39 43 44 42 39 38 36 32 29 27 26 26 26 26 26 26 27 28 28 29 27 25 24 25 26 25 24 25 25 24 24 23 22 21 23 25 25 24 24 23 23 23 24 26 30 31 30 30 30 30 30 31 30 30 31 31 32 32 30 27 28 29 28
26 23 20 21 21 22 26 29 29 29 28 24 20 22 29 32 32 32 32 32 33 36 39 41 39 36 34 34 33 29 28 27 27 27 28 29 30 30 30 30 30 29 28 26 25 25 24 23 22 23 24 24 24 23 23 22 22 24 24 24 25 24 23 24 25 26 29 31 32 32 32 31 33 34 34 33 32 32 31 31 31 29 28 29 26
24 21 20 22 24 23 24 27 30 30 26 21 21 25 29 30 31 34 36 35 34 36 38 36 33 31 31 31 30 28 27 27 27 28 29 30 30 31 30 29 28 27 26 26 25 25 23 21 21 22 23 23 24 24 24 24 23 23 23 24 26 24 22 23 25 27 28 30 32 33 33 33 35 37 37 35 34 34 31 31 32 30 29 30 27
25 23 22 23 25 23 22 27 31 28 23 21 24 28 30 32 34 35 34 32 34 36 35 32 30 29 29 29 28 26 26 27 27 28 28 28 28 29 28 27 26 25 25 26 26 25 23 22 22 23 24 24 25 26 26 25 25 24 24 26 27 24 21 21 24 26 27 29 31 32 34 35 36 37 38 38 36 36 35 33 33 32 31 31 27
26 26 25 25 25 24 24 28 27 21 20 24 27 30 31 33 36 36 32 32 36 37 35 32 30 28 27 26 25 25 26 27 27 27 27 27 27 27 27 25 24 24 25 26 26 26 25 24 24 24 25 26 26 27 26 26 26 26 26 27 26 24 24 25 25 24 24 27 30 32 33 36 36 36 37 38 38 38 39 37 36 36 34 32 28
27 28 27 26 25 25 25 22 18 17 22 26 27 31 34 35 34 33 34 37 39 38 34 30 28 26 25 25 24 25 26 26 27 27 26 27 27 27 25 23 23 25 27 27 27 28 27 25 24 24 25 25 25 26 26 26 26 26 26 27 27 27 27 27 26 24 23 24 27 31 33 33 33 33 34 36 36 38 40 39 39 39 39 37 34
29 29 28 26 26 26 20 15 15 20 24 27 30 33 35 34 32 34 39 41 39 35 30 26 25 25 26 26 26 27 26 25 25 25 26 26 26 25 25 24 25 27 27 26 26 26 25 23 23 23 24 24 24 25 25 25 26 25 25 27 29 28 26 26 26 25 25 23 22 27 31 31 31 33 34 34 33 34 35 36 37 39 40 39 38
31 29 27 27 26 22 15 13 18 23 26 31 34 34 32 32 33 37 41 40 35 30 26 24 26 28 28 28 27 26 25 24 25 27 29 29 27 26 26 26 27 28 26 25 25 24 23 22 22 23 23 24 25 24 24 25 25 24 24 27 29 27 27 29 28 27 28 26 21 23 28 31 30 31 33 34 33 33 33 32 32 34 36 34 33
30 28 28 27 21 16 15 18 23 28 32 35 33 29 29 32 36 38 38 34 29 26 26 28 30 29 28 28 27 25 25 26 28 30 30 29 27 27 27 27 27 27 27 25 23 21 21 22 22 22 22 24 25 25 25 25 24 23 23 25 27 27 28 30 30 29 30 29 24 22 26 30 30 30 32 33 34 34 34 33 31 32 34 32 29
28 27 28 23 16 16 20 25 30 33 33 31 29 29 31 33 35 37 34 28 26 27 30 31 30 28 27 27 26 25 26 29 31 31 29 27 26 25 25 26 25 24 23 21 18 18 19 20 20 21 21 23 24 25 24 23 22 22 22 23 25 26 26 27 29 30 30 29 28 25 26 29 31 32 32 33 34 34 33 33 32 31 32 31 31
28 31 26 17 16 20 26 31 35 35 31 29 31 32 33 33 32 33 32 29 29 31 31 29 27 26 27 27 26 27 29 31 32 30 27 26 24 23 23 23 22 22 20 18 16 16 16 17 19 20 22 24 26 26 24 22 22 23 23 23 23 24 24 24 27 30 28 27 27 27 28 28 31 33 33 32 34 34 33 33 31 29 29 29 29
37 34 21 16 22 28 31 34 33 30 31 34 35 33 32 32 31 32 33 31 30 30 28 26 25 26 27 29 29 29 31 32 31 28 27 26 24 23 22 22 22 21 18 14 13 15 15 17 20 21 23 24 26 26 25 23 23 23 23 22 20 20 21 22 24 26 26 26 28 30 30 27 28 32 31 30 32 33 32 32 29 27 27 26 26
42 32 20 24 31 33 36 35 29 29 35 37 34 32 31 32 32 32 31 29 27 27 26 25 26 27 29 31 30 30 31 31 30 28 27 26 26 23 22 22 21 17 14 13 14 16 17 19 20 22 24 26 27 26 24 23 23 23 22 20 18 17 18 19 20 21 24 26 27 29 30 28 28 29 29 29 31 33 32 30 29 28 26 24 25
39 28 26 34 38 37 36 32 30 36 40 34 30 31 31 32 32 31 28 26 26 27 27 26 27 29 31 32 31 31 31 31 30 29 27 26 26 24 23 22 19 15 14 15 16 16 18 19 21 22 24 26 28 26 23 23 24 23 22 20 16 14 15 17 20 20 21 22 23 25 27 29 29 29 28 29 31 33 32 31 30 27 24 24 28
32 29 35 41 41 38 34 31 35 40 36 29 29 31 32 32 31 28 26 26 27 28 27 27 28 30 32 32 31 31 31 31 30 29 29 27 25 25 23 20 18 16 15 16 16 17 19 20 21 22 24 26 26 25 23 23 24 23 23 21 17 15 16 18 20 21 19 19 20 22 23 26 26 26 27 29 31 32 31 31 32 28 25 28 33
29 34 42 41 37 36 32 32 37 38 31 29 32 33 33 31 28 27 26 27 28 28 27 28 30 32 33 32 31 31 32 32 31 29 28 26 25 24 21 18 17 16 16 17 17 18 20 21 21 21 22 23 22 21 20 21 21 21 22 21 18 18 20 20 20 18 17 17 19 19 21 24 24 25 26 29 31 32 31 33 35 32 28 32 36
35 41 43 39 36 36 34 33 35 33 29 31 34 34 32 29 27 27 28 28 29 28 27 29 31 32 32 32 32 33 32 32 31 29 27 27 25 22 18 16 16 16 17 17 19 20 20 19 17 18 19 20 19 18 17 17 18 18 20 20 17 18 22 23 19 14 13 15 16 18 21 23 25 25 26 29 30 31 30 31 31 27 24 30 35
42 42 41 40 38 35 34 33 33 31 31 34 35 33 30 29 28 29 29 29 29 27 28 30 31 31 32 32 33 34 32 31 30 28 27 27 25 20 16 16 16 16 16 17 18 18 16 14 12 14 16 17 16 14 12 14 17 16 17 17 16 18 23 24 23 19 17 17 17 19 21 23 24 24 24 27 29 29 28 27 25 22 23 29 32
41 40 40 40 37 34 34 33 32 33 34 35 34 31 30 30 29 29 30 29 28 28 29 30 30 30 31 32 33 33 31 29 27 26 25 24 22 19 17 17 16 16 16 16 15 13 12 10 10 12 13 13 11 9 9 12 14 13 12 13 15 20 22 24 25 25 22 19 18 19 21 22 24 23 22 26 28 27 26 25 24 23 25 29 30
39 40 40 39 36 34 33 33 34 35 35 34 32 30 30 30 30 30 30 29 28 29 29 30 30 30 31 32 32 31 29 28 26 24 23 21 21 21 18 17 17 16 15 13 11 11 11 11 9 10 10 10 8 7 8 9 9 9 9 10 15 21 22 24 26 25 22 19 18 20 21 22 23 22 22 24 27 26 24 24 25 25 26 28 28
40 40 40 37 35 33 32 33 35 35 34 32 30 30 30 30 31 30 29 28 28 29 30 29 29 29 29 30 30 28 27 26 24 23 20 19 19 19 19 19 18 15 13 12 11 11 12 11 9 8 8 7 6 6 7 6 4 5 6 10 18 20 19 21 23 22 20 17 17 19 20 21 21 21 21 23 27 25 24 25 26 26 26 26 25
39 40 40 37 33 32 33 34 35 35 33 32 30 30 29 30 30 30 29 28 29 29 29 29 29 29 27 26 25 26 25 25 23 22 20 19 19 18 18 18 17 15 14 13 12 12 12 10 9 8 6 5 5 5 5 4 2 1 4 14 20 19 17 17 16 16 15 15 16 18 19 19 20 20 20 24 27 26 26 27 26 24 24 23 22
38 39 38 35 33 33 33 34 34 34 33 31 30 30 30 30 30 29 28 28 28 28 29 28 28 27 25 23 22 23 24 23 22 21 19 20 20 19 19 19 17 15 15 13 13 13 13 11 10 8 6 5 4 4 4 3 0 1 6 16 19 17 16 17 16 16 16 15 15 17 18 19 21 21 23 26 27 28 28 27 24 23 22 20 19
39 37 35 34 33 34 34 34 33 33 32 31 30 31 31 30 29 28 27 28 29 29 28 27 25 23 22 21 21 21 21 21 22 21 20 19 18 18 19 21 20 17 15 14 14 14 13 13 13 11 7 5 3 3 3 3 2 2 7 16 20 19 18 18 19 21 20 18 17 18 19 20 22 23 25 25 25 26 25 22 22 22 21 19 18
37 35 34 33 33 33 34 34 33 32 31 30 31 31 30 29 28 28 27 27 29 29 27 25 24 22 21 22 21 20 20 20 20 21 23 23 23 21 19 20 21 20 20 17 14 13 15 15 15 12 8 4 2 3 2 4 5 4 9 18 21 21 20 21 23 24 24 22 20 19 18 19 19 21 21 20 20 22 21 18 19 20 19 18 16
37 34 33 34 34 33 33 32 32 31 30 31 32 31 30 29 29 28 27 26 27 27 26 25 24 23 22 23 21 20 20 19 19 19 20 22 26 27 24 22 20 20 23 21 15 13 15 16 15 13 8 3 2 2 1 6 7 8 13 19 20 21 23 24 26 26 24 21 19 17 16 17 19 19 19 20 21 21 19 18 18 17 17 17 16
Wind_Direction
353 351 352 352 352 352 350 346 342 339 337 334 329 327 326 325 322 322 327 330 330 330 330 329 328 325 323 320 317 315 313 311 309 310 312 311 308 303 291 270 260 257 252 249 249 246 244 242 238 234 231 227 218 211 206 204 206 201 197 200 196 189 190 190 186 179 173 178 187 194 201 203 203 202 203 203 204 204 205 207 214 224 224 224 229
345 349 349 348 348 348 348 346 343 341 338 334 329 325 324 322 318 317 322 326 327 327 326 324 322 321 318 313 309 307 305 298 293 298 305 307 310 312 307 291 269 261 256 250 248 246 245 244 240 237 234 233 230 224 216 213 212 203 194 194 192 188 189 189 184 177 177 183 179 185 205 210 208 209 210 209 207 205 204 205 209 215 218 222 225
345 348 344 344 344 342 345 345 341 338 334 331 329 324 322 319 315 314 316 319 321 322 322 319 317 316 312 308 306 303 300 295 284 281 284 286 297 307 306 302 284 260 250 245 247 247 244 244 243 239 235 235 235 234 228 220 214 204 194 192 189 190 195 192 187 185 181 177 174 186 198 200 209 210 212 211 208 206 204 204 207 208 210 215 219
341 335 331 335 335 333 339 341 337 333 329 328 326 323 318 314 312 311 309 312 315 315 316 314 313 314 310 306 306 303 299 296 289 280 269 264 281 298 298 302 299 282 264 245 239 241 241 244 245 242 239 237 236 235 233 225 216 206 198 197 191 189 195 195 193 192 184 174 175 197 194 196 218 203 199 207 204 203 206 203 204 205 205 207 210
336 330 330 333 330 328 333 335 332 328 325 323 321 317 312 309 308 307 306 307 307 307 309 309 309 310 310 308 307 306 302 297 293 289 277 270 280 288 290 294 293 292 291 270 247 237 234 236 239 243 242 239 237 236 235 230 222 213 207 205 200 193 191 190 192 195 194 189 184 182 182 204 225 183 168 192 194 198 206 203 202 202 202 203 205
335 331 332 332 329 329 331 331 329 325 321 320 317 311 306 304 303 303 303 304 305 306 308 307 307 308 308 307 307 305 301 296 292 292 293 291 289 288 289 289 284 285 290 285 274 257 241 234 231 235 240 239 237 237 238 236 229 222 216 212 209 203 196 190 190 195 200 202 199 198 198 201 202 172 159 168 181 197 204 200 202 202 199 202 204
333 332 333 330 330 332 330 329 327 323 320 318 314 309 304 301 302 301 302 304 306 307 308 307 306 306 305 303 301 298 293 290 289 289 291 292 290 289 289 287 284 284 282 279 282 277 265 253 238 230 231 233 235 236 235 235 234 230 223 218 215 210 204 200 192 188 196 207 208 209 210 203 191 182 180 168 165 194 201 197 201 201 199 202 204
336 335 334 331 331 332 330 327 324 322 321 318 313 309 305 302 302 302 302 304 305 306 307 305 303 302 302 300 297 294 289 287 287 285 285 287 286 284 284 284 285 286 284 278 275 275 274 269 256 241 230 226 229 233 232 232 234 234 227 223 220 215 213 212 201 186 191 201 204 208 211 204 198 200 202 193 172 171 182 190 198 197 201 204 204
339 335 331 328 329 329 328 325 321 320 319 317 313 309 306 306 307 308 306 304 305 307 307 304 300 299 299 298 296 293 289 287 286 282 279 280 281 281 282 282 282 282 283 284 280 273 270 268 263 253 240 228 224 226 228 228 231 233 230 225 223 221 219 219 214 200 194 193 192 199 205 202 198 203 205 202 200 186 175 180 184 187 200 207 205
336 332 328 327 327 327 325 321 318 318 318 315 312 309 309 311 312 312 308 306 306 308 308 305 301 297 296 295 295 294 291 287 285 283 280 278 276 278 280 280 279 279 279 283 284 279 275 272 267 260 249 238 228 223 222 223 226 229 230 228 225 224 223 222 221 214 202 195 191 189 193 193 188 196 203 201 207 216 195 176 174 178 188 200 202
334 329 326 324 324 324 324 321 320 321 319 314 312 311 313 313 314 313 310 309 309 309 308 306 301 296 294 293 293 293 292 289 285 283 282 280 277 276 277 276 275 275 276 279 279 277 276 275 273 268 259 250 240 231 223 220 221 223 226 228 226 225 225 225 225 222 211 201 196 190 190 192 187 191 196 192 197 213 202 185 180 180 181 187 192
334 330 326 322 321 324 325 322 321 321 317 314 313 313 312 313 315 316 314 313 311 310 309 305 301 296 293 291 290 289 289 288 286 284 283 282 280 278 277 275 272 271 270 270 270 273 277 275 271 267 264 257 251 245 234 224 221 219 220 225 226 226 226 227 227 225 219 210 203 198 196 196 196 198 194 191 198 203 199 199 175 173 181 177 175
336 331 325 322 322 325 325 321 320 319 315 315 315 313 312 314 316 317 316 315 314 312 309 304 300 297 294 291 289 288 287 286 287 284 282 281 280 280 278 277 276 274 269 264 266 272 277 279 275 268 264 256 249 248 245 237 229 223 219 220 224 226 226 227 227 226 224 221 215 206 200 201 205 204 195 192 196 196 196 199 166 162 173 160 163
339 331 325 325 325 326 325 322 321 318 316 316 314 312 312 314 316 318 316 315 314 313 309 305 302 299 296 292 289 288 286 286 286 285 282 279 278 279 279 277 276 276 274 270 269 270 272 278 279 274 270 262 251 244 240 237 235 230 226 223 224 226 227 229 230 229 228 225 221 214 204 205 208 203 198 195 190 188 190 185 159 157 174 161 158
333 328 326 326 327 326 324 322 322 319 316 315 314 314 314 314 317 318 316 314 313 313 311 308 305 302 299 295 291 289 287 285 285 285 284 281 278 277 277 277 276 275 275 274 272 270 268 273 275 273 272 269 264 257 246 238 234 232 231 228 227 228 228 229 230 231 230 227 223 221 215 211 208 201 200 198 191 194 197 190 176 161 174 177 159
330 328 326 326 326 325 323 322 321 319 317 318 320 319 314 315 318 318 316 313 312 313 313 310 306 304 302 298 294 289 285 283 282 282 283 282 280 279 277 277 276 275 275 274 273 269 266 267 269 269 269 269 267 265 261 250 240 235 233 232 231 230 230 230 230 230 229 228 226 225 223 220 213 205 204 203 202 206 207 201 193 181 167 178 181
329 327 325 325 325 322 322 321 318 322 329 329 325 318 314 316 317 318 317 313 310 312 313 311 308 306 303 300 296 292 285 279 280 282 282 282 281 278 277 276 275 275 274 273 272 269 266 264 263 264 266 266 265 263 263 259 249 239 235 234 232 231 231 230 230 230 229 228 227 226 225 225 220 210 206 209 212 212 208 206 204 198 192 188 190
328 328 326 324 323 321 322 320 318 328 337 328 320 317 318 318 317 320 318 311 309 311 312 311 310 306 304 301 299 296 289 279 279 283 284 284 280 275 274 273 273 273 272 272 272 270 267 263 261 261 260 260 261 260 261 259 253 243 238 235 233 232 232 232 230 229 228 225 225 225 225 225 221 212 208 211 214 213 209 209 208 204 203 204 198
327 327 326 324 323 322 320 320 323 331 329 321 320 320 321 320 318 320 317 310 310 311 309 310 309 304 302 301 300 298 294 286 282 283 284 283 280 277 276 274 274 273 272 271 270 268 268 265 262 260 259 258 258 256 257 255 249 244 241 237 234 231 231 233 230 227 225 221 221 223 222 221 220 217 216 214 212 212 211 208 207 205 205 208 204
327 326 326 325 325 323 322 324 328 328 322 321 323 323 323 322 320 322 321 318 316 311 309 308 307 304 302 301 300 299 298 293 287 285 285 283 280 279 278 276 275 273 272 270 267 266 267 266 264 261 259 260 259 257 257 256 251 246 243 239 235 232 229 231 232 229 226 221 220 221 219 218 220 219 216 212 210 211 210 207 206 205 204 207 204
326 326 327 326 325 325 327 328 327 322 320 323 325 324 323 323 325 326 325 321 316 311 309 307 305 303 302 302 301 301 301 295 288 285 285 283 284 284 282 282 281 277 274 271 267 265 264 264 264 262 260 259 258 258 258 257 257 252 248 244 239 234 229 229 232 230 227 224 222 222 220 219 218 214 211 210 209 209 207 206 205 204 204 205 202
325 325 328 328 328 330 330 325 322 320 321 324 325 324 324 327 328 324 321 320 316 313 313 312 310 307 307 311 311 307 301 292 285 285 286 285 286 288 287 287 286 283 279 273 268 267 265 263 264 262 262 260 259 260 256 251 252 254 254 251 246 239 233 231 231 230 229 226 224 223 221 220 217 215 213 211 207 205 204 204 203 203 202 202 201
324 324 326 328 329 329 325 322 322 323 323 323 324 326 327 328 327 326 329 331 329 325 325 324 321 315 313 314 312 307 302 293 286 284 284 284 285 288 289 286 284 283 280 275 271 268 265 262 261 260 260 260 259 260 255 246 244 249 253 252 250 246 241 237 234 232 230 227 224 223 223 221 217 215 214 210 206 205 204 202 203 203 201 200 200
324 323 323 327 326 323 323 324 323 321 321 323 324 328 330 331 332 335 336 335 332 329 327 324 320 315 312 309 306 305 301 294 289 285 284 285 287 289 289 287 286 283 279 275 271 268 263 260 258 256 256 256 257 257 254 246 241 243 246 248 250 249 245 242 239 237 234 229 225 224 224 222 215 213 213 208 205 203 202 202 201 200 200 199 197
324 321 322 326 325 323 325 324 321 319 321 324 329 333 333 335 336 333 328 326 327 325 324 320 315 309 306 303 301 299 293 288 286 287 287 287 288 288 288 287 288 286 281 275 271 268 263 259 257 256 255 256 257 257 254 247 240 240 241 240 245 247 245 243 242 240 237 232 228 227 227 222 215 212 212 208 205 202 200 200 198 194 197 198 194
323 321 323 325 325 325 323 320 320 320 320 324 332 333 330 328 325 322 319 319 320 319 318 315 309 302 299 299 298 294 290 285 282 282 283 283 284 285 285 284 284 284 280 274 270 268 266 262 259 258 258 258 260 259 257 250 242 240 237 236 240 245 245 244 241 239 238 235 232 232 231 224 216 212 212 210 206 202 200 198 197 195 195 194 191
322 321 322 325 325 324 321 319 320 318 319 323 324 324 325 322 318 317 314 312 313 315 312 308 305 301 299 299 297 294 292 290 286 284 283 282 283 282 280 280 279 278 276 272 268 266 265 264 261 260 261 261 261 259 257 254 247 241 235 233 238 242 244 244 241 240 240 239 236 234 233 226 219 215 214 211 207 203 201 200 199 197 194 190 183
321 319 321 325 324 322 319 318 318 318 320 321 319 319 321 319 316 316 314 310 312 314 310 305 305 305 302 300 299 297 297 296 293 290 287 285 284 281 279 277 275 273 272 271 267 263 263 262 260 261 260 260 260 258 257 255 251 246 240 238 239 240 240 241 241 241 242 241 238 234 232 228 223 219 217 212 208 204 199 199 200 196 190 185 176
319 318 322 323 321 320 318 316 317 319 318 316 317 318 319 318 317 314 311 312 314 313 310 306 303 302 301 301 301 301 301 299 296 293 290 288 286 283 280 276 275 276 275 272 267 263 262 261 259 257 256 255 256 255 255 253 249 247 245 242 241 240 239 239 240 240 240 241 238 233 232 230 226 223 219 214 211 206 200 198 197 194 189 183 175
318 319 321 321 319 318 316 317 320 322 316 315 319 321 320 320 319 317 315 317 317 313 309 306 300 299 301 302 302 302 301 299 297 295 293 292 289 286 281 275 274 278 278 275 270 266 264 263 259 255 254 254 253 251 251 249 248 248 245 240 238 239 241 239 237 235 236 238 237 233 231 230 227 223 219 215 212 209 206 203 198 194 191 185 178
319 319 318 317 317 316 317 322 325 322 319 319 321 323 321 319 320 321 318 317 317 313 308 303 300 301 305 305 304 303 301 298 297 296 294 292 290 287 283 279 278 280 278 273 267 264 262 261 259 257 256 255 251 249 248 249 251 251 245 240 237 237 238 236 233 232 232 234 234 232 229 227 224 219 216 213 210 208 207 207 204 199 195 191 186
319 318 316 316 317 317 322 330 327 321 322 322 320 321 319 318 321 321 316 315 315 311 306 305 306 310 309 306 303 302 302 302 301 300 299 295 291 288 285 282 280 279 277 269 263 262 260 258 259 259 260 259 256 253 253 255 256 255 250 244 240 236 233 233 232 232 231 231 230 228 226 222 219 215 212 209 205 204 204 204 204 202 199 196 194
318 318 318 317 318 323 333 337 329 325 325 323 321 321 320 321 323 321 317 314 311 310 311 313 312 310 307 305 304 302 302 304 305 303 300 294 290 288 286 283 280 278 274 267 263 263 261 259 259 261 262 263 262 261 261 260 258 255 254 250 244 238 232 231 231 230 230 229 224 220 219 216 214 212 209 206 203 201 201 201 199 199 199 197 196
319 319 319 319 324 336 339 333 328 326 324 322 321 321 321 322 322 321 317 312 312 318 321 315 309 307 307 307 305 302 302 305 305 304 299 292 286 284 282 280 278 274 269 263 260 260 259 258 259 260 262 264 264 265 265 262 256 253 255 254 250 244 237 232 229 228 227 224 219 213 210 208 208 207 204 203 200 197 198 198 196 196 198 197 194
320 320 320 325 337 342 336 331 328 325 323 324 324 322 320 319 320 320 316 312 317 321 315 308 306 309 310 310 307 304 304 305 305 304 300 294 287 281 279 279 279 276 269 261 259 260 258 258 258 257 260 262 263 264 262 259 255 253 254 255 252 248 241 234 230 228 224 218 213 210 208 205 204 203 202 200 197 194 193 194 194 194 194 194 195
321 319 321 333 344 338 334 331 328 325 326 329 327 322 318 318 321 320 316 314 316 314 308 307 310 313 314 312 310 307 305 304 305 303 298 294 288 282 280 281 283 284 279 267 262 261 258 258 259 258 258 259 260 260 257 255 256 257 255 254 252 250 245 237 230 225 219 211 206 206 208 206 202 201 201 199 195 191 189 189 190 189 188 188 191
320 320 327 342 339 335 331 328 327 329 330 327 324 321 318 318 319 319 316 313 311 309 308 310 314 315 314 311 308 306 304 303 304 301 296 293 289 284 282 282 281 282 282 276 271 269 265 261 260 258 258 258 259 259 257 255 256 256 252 249 250 249 242 232 224 217 209 206 207 207 207 204 200 199 198 196 192 188 185 185 183 179 178 179 183
321 323 336 340 335 333 332 331 333 332 326 321 321 323 321 318 317 317 315 312 310 311 313 314 315 314 312 309 307 304 304 303 301 298 294 292 289 286 283 282 282 284 286 284 278 274 268 262 260 258 257 258 259 259 259 259 258 253 245 241 244 244 233 219 210 204 200 203 207 207 205 201 198 197 195 193 190 185 182 181 176 171 170 172 176
326 333 338 333 331 332 332 333 333 326 321 319 322 324 321 318 317 317 315 313 313 313 314 315 315 313 311 308 306 305 303 302 300 296 293 290 289 287 283 282 286 289 288 283 277 273 270 266 263 261 258 259 260 260 262 266 265 255 244 241 241 229 212 200 194 190 192 198 199 199 200 199 198 195 194 194 191 184 179 177 172 167 165 168 173
333 340 336 330 328 329 329 331 329 323 321 325 327 324 321 319 318 317 315 315 314 313 314 314 313 312 310 308 306 305 303 301 297 294 291 288 285 283 282 284 288 289 287 284 280 277 275 271 268 266 263 263 262 261 264 269 267 257 248 245 237 212 195 189 185 181 180 183 186 190 193 194 194 192 192 194 190 181 177 175 172 167 167 170 172
332 337 336 332 329 326 325 328 328 323 323 328 327 323 321 320 319 318 317 316 314 313 314 314 313 312 311 308 306 305 303 301 297 292 290 288 285 281 281 285 288 286 284 283 281 280 277 273 272 272 272 272 270 268 270 270 266 260 254 247 231 206 192 183 176 176 175 173 175 181 185 189 190 189 191 194 187 178 175 177 176 175 174 172 169
330 332 333 331 328 325 323 325 327 326 326 327 325 322 321 320 319 319 319 317 316 314 315 315 314 311 310 308 307 306 304 302 299 297 296 294 288 284 284 288 287 284 283 281 279 278 278 278 280 283 283 283 281 276 274 271 267 262 256 245 223 200 192 182 170 167 170 167 170 177 182 186 188 188 192 194 186 178 176 177 177 175 169 167 166
329 329 331 331 327 324 323 325 327 328 326 326 323 321 321 321 320 321 321 319 317 317 317 316 313 311 310 308 307 307 306 304 303 305 306 300 291 287 289 290 286 283 284 282 279 282 288 292 298 297 290 288 287 280 271 268 265 259 254 244 216 191 188 184 174 172 173 169 172 178 179 182 184 185 190 192 183 174 173 175 174 166 158 160 163
330 328 330 330 327 324 324 325 326 326 326 325 323 321 321 321 321 322 322 319 318 319 318 315 312 311 310 308 307 308 308 307 309 312 313 311 309 307 304 298 292 288 287 287 289 298 305 302 301 301 295 292 293 281 268 269 262 252 254 244 204 181 183 185 180 179 177 171 173 176 174 177 179 180 187 187 175 166 168 173 168 159 156 160 161
330 329 329 329 326 325 325 326 325 325 325 324 323 322 321 320 321 322 321 319 320 320 317 314 312 311 309 308 308 309 309 310 314 317 318 320 324 323 316 308 302 297 295 299 304 309 308 299 294 296 295 295 294 280 275 279 264 245 248 227 186 175 183 188 183 179 175 171 172 172 171 172 173 177 184 178 163 157 165 168 162 157 158 159 157
329 330 330 329 326 326 326 325 325 326 325 324 324 323 322 321 322 322 321 321 321 319 316 314 312 311 309 308 310 311 312 315 318 318 318 320 322 323 320 316 314 314 314 313 311 309 307 298 290 292 294 292 288 279 281 286 270 247 231 191 174 173 179 182 181 179 173 167 164 163 164 167 169 174 174 160 150 152 158 154 150 153 155 153 152
329 328 328 328 328 327 328 327 326 326 326 325 324 323 322 321 321 322 322 323 321 318 316 314 312 311 310 310 311 313 315 317 318 318 320 322 323 324 321 316 321 332 331 321 314 312 310 304 298 298 299 291 278 275 282 287 292 280 178 166 164 164 162 160 162 161 156 154 156 158 162 164 165 166 158 146 142 146 144 139 141 146 147 147 151
328 328 328 328 328 328 328 327 326 325 325 324 324 323 321 322 323 324 325 324 321 319 316 313 312 311 311 311 312 313 315 315 316 317 319 321 323 324 320 314 320 334 332 322 317 314 313 317 318 310 301 296 281 270 280 276 279 73 143 150 150 149 147 143 141 140 141 145 150 151 148 146 142 135 129 128 130 134 135 136 140 144 145 146 152
327 328 328 328 328 328 328 327 325 324 324 323 322 322 322 324 325 326 326 324 322 320 317 315 314 313 313 313 312 313 315 315 316 317 316 315 315 314 311 310 318 330 331 320 315 316 318 326 328 316 304 305 299 288 283 234 174 113 137 147 146 145 144 141 141 143 140 133 127 124 123 123 121 117 116 119 124 127 129 134 139 144 147 149 150
328 328 327 328 328 327 327 326 325 324 323 323 322 322 324 326 326 326 326 323 322 321 319 319 318 316 316 316 315 315 317 317 317 319 319 320 321 322 322 320 320 326 330 324 315 320 328 330 326 318 310 301 294 307 285 197 171 139 143 151 151 148 145 142 144 145 138 128 121 118 119 124 125 121 121 125 128 128 127 129 135 143 148 148 148
329 328 327 328 328 327 326 324 324 324 322 322 322 322 324 326 326 326 324 323 323 323 320 320 319 317 316 317 315 315 316 315 315 317 318 320 323 327 334 336 329 327 333 331 321 322 332 333 325 317 311 286 279 315 185 175 168 149 147 150 148 144 142 143 145 142 131 123 125 127 128 133 133 129 130 133 134 134 134 134 137 143 148 150 152